TimeCET,TemperatureF,Dew PointF,Humidity,Sea Level PressureIn,VisibilityMPH,Wind Direction,Wind SpeedMPH,Gust SpeedMPH,PrecipitationIn,Events,Conditions,WindDirDegrees,DateUTC
12:00 AM,44,34,59,30.16,9,WNW,24.6,,,,Scattered Clouds,300,2014-01-11 23:00:00
12:25 AM,44.6,33.8,66,30.15,6.2,WNW,24.2,-,N/A,,Mostly Cloudy,300,2014-01-11 23:25:00
12:55 AM,42.8,33.8,70,30.15,6.2,WNW,24.2,-,N/A,,Scattered Clouds,300,2014-01-11 23:55:00
1:00 AM,43,34,60,30.18,10,WNW,24.6,,,,Partly Cloudy,300,2014-01-12 00:00:00
1:25 AM,42.8,33.8,70,30.15,6.2,WNW,24.2,-,N/A,,Partly Cloudy,300,2014-01-12 00:25:00
1:55 AM,44.6,35.6,71,30.18,6.2,WNW,21.9,-,N/A,,Mostly Cloudy,300,2014-01-12 00:55:00
2:00 AM,44,35,60,30.19,9,WNW,20.1,,,,Mostly Cloudy,300,2014-01-12 01:00:00
2:09 AM,44.6,37.4,76,30.18,6.2,West,21.9,-,N/A,,Overcast,280,2014-01-12 01:09:00
2:19 AM,42.8,35.6,76,30.18,6.2,West,24.2,-,N/A,,Mostly Cloudy,280,2014-01-12 01:19:00
2:25 AM,42.8,35.6,76,30.18,6.2,West,23.0,-,N/A,,Scattered Clouds,280,2014-01-12 01:25:00
2:55 AM,42.8,35.6,76,30.18,6.2,West,20.7,-,N/A,,Unknown,280,2014-01-12 01:55:00
3:00 AM,43,35,64,30.20,8,West,20.1,,,,Scattered Clouds,280,2014-01-12 02:00:00
3:25 AM,42.8,35.6,76,30.18,6.2,West,20.7,-,N/A,,Mostly Cloudy,280,2014-01-12 02:25:00
3:55 AM,42.8,35.6,76,30.18,6.2,West,19.6,-,N/A,,Partly Cloudy,280,2014-01-12 02:55:00
4:00 AM,43,35,65,30.21,9,West,20.1,,,,Partly Cloudy,280,2014-01-12 03:00:00
4:13 AM,42.8,35.6,76,30.18,6.2,West,20.7,-,N/A,,Mostly Cloudy,280,2014-01-12 03:13:00
4:20 AM,42.8,35.6,76,30.18,6.2,West,18.4,-,N/A,,Partly Cloudy,280,2014-01-12 03:20:00
4:25 AM,42.8,35.6,76,30.18,6.2,WNW,18.4,-,N/A,,Partly Cloudy,290,2014-01-12 03:25:00
4:55 AM,42.8,35.6,76,30.18,6.2,West,19.6,-,N/A,,Partly Cloudy,280,2014-01-12 03:55:00
4:56 AM,42.8,35.6,76,30.18,6.2,West,19.6,-,N/A,,Scattered Clouds,280,2014-01-12 03:56:00
5:00 AM,43,35,65,30.21,8,West,20.1,,,,Partly Cloudy,280,2014-01-12 04:00:00
5:00 AM,42.8,35.6,76,30.18,6.2,West,19.6,-,N/A,,Mostly Cloudy,280,2014-01-12 04:00:00
5:05 AM,42.8,35.6,76,30.18,6.2,West,19.6,-,N/A,,Scattered Clouds,280,2014-01-12 04:05:00
5:11 AM,42.8,35.6,76,30.18,6.2,West,18.4,-,N/A,,Scattered Clouds,280,2014-01-12 04:11:00
5:13 AM,42.8,33.8,70,30.18,6.2,West,18.4,-,N/A,,Partly Cloudy,280,2014-01-12 04:13:00
5:25 AM,42.8,35.6,76,30.18,6.2,West,19.6,-,N/A,,Scattered Clouds,270,2014-01-12 04:25:00
5:26 AM,42.8,35.6,76,30.18,6.2,West,19.6,-,N/A,,Mostly Cloudy,280,2014-01-12 04:26:00
5:43 AM,42.8,35.6,76,30.18,6.2,West,18.4,-,N/A,,Partly Cloudy,280,2014-01-12 04:43:00
5:55 AM,42.8,35.6,76,30.18,6.2,West,18.4,-,N/A,,Partly Cloudy,280,2014-01-12 04:55:00
6:00 AM,43,36,67,30.21,8,West,17.9,,,,Scattered Clouds,280,2014-01-12 05:00:00
6:04 AM,42.8,35.6,76,30.18,6.2,West,17.3,-,N/A,,Scattered Clouds,280,2014-01-12 05:04:00
6:11 AM,42.8,35.6,76,30.18,6.2,West,16.1,-,N/A,,Partly Cloudy,280,2014-01-12 05:11:00
6:25 AM,42.8,35.6,76,30.18,6.2,West,16.1,-,N/A,,Partly Cloudy,280,2014-01-12 05:25:00
6:55 AM,42.8,35.6,76,30.18,6.2,West,16.1,-,N/A,,Unknown,270,2014-01-12 05:55:00
7:00 AM,42,36,72,30.21,7,West,15.7,,,,Partly Cloudy,270,2014-01-12 06:00:00
7:25 AM,42.8,35.6,76,30.18,6.2,West,15.0,-,N/A,,Unknown,270,2014-01-12 06:25:00
7:55 AM,42.8,35.6,76,30.18,6.2,West,13.8,-,N/A,,Unknown,270,2014-01-12 06:55:00
8:00 AM,42,36,72,30.21,7,West,13.4,,,,,270,2014-01-12 07:00:00
8:25 AM,41.0,35.6,81,30.18,6.2,West,12.7,-,N/A,,Unknown,270,2014-01-12 07:25:00
8:55 AM,41.0,37.4,87,30.18,6.2,West,12.7,-,N/A,,Unknown,260,2014-01-12 07:55:00
9:00 AM,42,37,75,30.21,6,West,13.4,,,,,260,2014-01-12 08:00:00
9:25 AM,41.0,37.4,87,30.18,5.6,West,11.5,-,N/A,,Haze,260,2014-01-12 08:25:00
9:55 AM,42.8,37.4,81,30.21,6.2,WSW,11.5,-,N/A,,Mostly Cloudy,250,2014-01-12 08:55:00
10:00 AM,43,37,71,30.22,6,WSW,11.2,,,,Scattered Clouds,250,2014-01-12 09:00:00
10:25 AM,42.8,37.4,81,30.21,6.2,WSW,10.4,-,N/A,,Unknown,240,2014-01-12 09:25:00
10:31 AM,42.8,37.4,81,30.21,4.3,WSW,10.4,-,N/A,,Haze,240,2014-01-12 09:31:00
10:38 AM,42.8,37.4,81,30.21,5.0,WSW,10.4,-,N/A,,Haze,240,2014-01-12 09:38:00
10:55 AM,42.8,37.4,81,30.18,6.2,SW,10.4,-,N/A,,Partly Cloudy,230,2014-01-12 09:55:00
11:00 AM,43,38,75,30.22,16,SW,8.9,,,,Scattered Clouds,230,2014-01-12 10:00:00
11:25 AM,44.6,39.2,81,30.18,6.2,SW,10.4,-,N/A,,Unknown,230,2014-01-12 10:25:00
11:55 AM,44.6,37.4,76,30.18,6.2,SW,10.4,-,N/A,,Unknown,230,2014-01-12 10:55:00
12:00 PM,44,38,73,30.20,16,SW,11.2,,,,,230,2014-01-12 11:00:00
12:25 PM,44.6,39.2,81,30.18,6.2,SW,10.4,-,N/A,,Unknown,230,2014-01-12 11:25:00
12:55 PM,44.6,37.4,76,30.15,6.2,SW,9.2,-,N/A,,Partly Cloudy,220,2014-01-12 11:55:00
1:00 PM,44,37,69,30.17,25,SW,8.9,,,,Partly Cloudy,220,2014-01-12 12:00:00
1:25 PM,44.6,37.4,76,30.15,6.2,SW,9.2,-,N/A,,Partly Cloudy,220,2014-01-12 12:25:00
1:55 PM,46.4,37.4,71,30.15,6.2,SW,10.4,-,N/A,,Mostly Cloudy,230,2014-01-12 12:55:00
2:00 PM,45,37,65,30.15,22,SW,11.2,,,,Partly Cloudy,230,2014-01-12 13:00:00
2:25 PM,44.6,37.4,76,30.12,6.2,SW,12.7,-,N/A,,Unknown,230,2014-01-12 13:25:00
2:55 PM,44.6,37.4,76,30.12,6.2,SW,12.7,-,N/A,,Partly Cloudy,220,2014-01-12 13:55:00
3:00 PM,44,38,73,30.13,25,SSW,13.4,,,,Scattered Clouds,210,2014-01-12 14:00:00
3:05 PM,44.6,39.2,81,30.12,6.2,SSW,12.7,-,N/A,,Scattered Clouds,210,2014-01-12 14:05:00
3:16 PM,44.6,37.4,76,30.12,6.2,SSW,11.5,-,N/A,,Partly Cloudy,210,2014-01-12 14:16:00
3:25 PM,42.8,39.2,87,30.12,6.2,SSW,10.4,-,N/A,,Unknown,200,2014-01-12 14:25:00
3:55 PM,42.8,37.4,81,30.09,6.2,SSE,6.9,-,N/A,,Unknown,160,2014-01-12 14:55:00
4:00 PM,42,38,83,30.10,19,SSE,6.7,,,,,160,2014-01-12 15:00:00
4:25 PM,41.0,37.4,87,30.09,6.2,SSE,10.4,-,N/A,,Partly Cloudy,160,2014-01-12 15:25:00
4:55 PM,41.0,37.4,87,30.06,6.2,SSE,11.5,-,N/A,,Unknown,160,2014-01-12 15:55:00
5:00 PM,41,38,84,30.08,11,SSE,11.2,,,,,160,2014-01-12 16:00:00
5:25 PM,41.0,37.4,87,30.06,6.2,SE,12.7,-,N/A,,Unknown,140,2014-01-12 16:25:00
5:55 PM,41.0,37.4,87,30.04,6.2,SSE,15.0,-,N/A,,Unknown,150,2014-01-12 16:55:00
6:00 PM,40,37,85,30.06,14,SSE,15.7,,,,,150,2014-01-12 17:00:00
6:25 PM,41.0,37.4,87,30.04,6.2,SSE,17.3,-,N/A,,Partly Cloudy,150,2014-01-12 17:25:00
6:55 PM,39.2,37.4,93,30.04,6.2,SE,18.4,-,N/A,,Partly Cloudy,140,2014-01-12 17:55:00
7:00 PM,40,37,87,30.04,7,SE,17.9,,,,Partly Cloudy,140,2014-01-12 18:00:00
7:25 PM,39.2,37.4,93,30.01,6.2,SE,20.7,-,N/A,,Overcast,140,2014-01-12 18:25:00
7:55 PM,39.2,37.4,93,30.01,6.2,SSE,21.9,-,N/A,,Overcast,150,2014-01-12 18:55:00
8:00 PM,40,37,85,30.01,9,SSE,20.1,,,,Mostly Cloudy,150,2014-01-12 19:00:00
8:25 PM,39.2,37.4,93,29.98,6.2,SE,19.6,-,N/A,,Mostly Cloudy,140,2014-01-12 19:25:00
8:55 PM,39.2,37.4,93,29.98,5.0,SE,21.9,-,N/A,,Overcast,140,2014-01-12 19:55:00
9:00 PM,39,37,91,29.96,4,SE,22.4,,,,Mist,140,2014-01-12 20:00:00
9:01 PM,39.2,37.4,93,29.95,4.3,SE,21.9,-,N/A,,Scattered Clouds,140,2014-01-12 20:01:00
9:16 PM,39.2,37.4,93,29.95,5.0,SE,23.0,-,N/A,,Partly Cloudy,140,2014-01-12 20:16:00
9:25 PM,39.2,37.4,93,29.95,5.0,SSE,25.3,-,N/A,,Mostly Cloudy,150,2014-01-12 20:25:00
9:36 PM,39.2,35.6,87,29.92,5.6,SE,25.3,-,N/A,,Overcast,140,2014-01-12 20:36:00
9:43 PM,39.2,35.6,87,29.92,4.3,SE,26.5,-,N/A,,Mostly Cloudy,140,2014-01-12 20:43:00
9:51 PM,37.4,35.6,93,29.92,3.7,SE,26.5,-,N/A,,Scattered Clouds,140,2014-01-12 20:51:00
9:55 PM,37.4,35.6,93,29.92,3.7,SE,26.5,-,N/A,,Mostly Cloudy,140,2014-01-12 20:55:00
9:59 PM,37.4,35.6,93,29.92,3.7,SE,26.5,-,N/A,,Mostly Cloudy,140,2014-01-12 20:59:00
10:00 PM,38,36,88,29.92,3,SE,26.8,,,,Mist,140,2014-01-12 21:00:00
10:03 PM,37.4,35.6,93,29.92,3.1,SE,27.6,-,N/A,,Scattered Clouds,140,2014-01-12 21:03:00
10:04 PM,37.4,35.6,93,29.92,-9999.0,SE,27.6,-,N/A,,Mostly Cloudy,140,2014-01-12 21:04:00
10:25 PM,37.4,35.6,93,29.89,-9999.0,SE,27.6,-,N/A,,Mostly Cloudy,130,2014-01-12 21:25:00
10:55 PM,37.4,35.6,93,29.86,3.1,SE,27.6,-,N/A,,Scattered Clouds,140,2014-01-12 21:55:00
10:59 PM,37.4,35.6,93,29.86,3.1,SE,27.6,-,N/A,,Scattered Clouds,140,2014-01-12 21:59:00
11:00 PM,37,36,92,29.87,3,SE,29.1,,,,Mist,140,2014-01-12 22:00:00
11:00 PM,37.4,35.6,93,29.86,3.1,SE,28.8,-,N/A,,Scattered Clouds,140,2014-01-12 22:00:00
11:11 PM,37.4,35.6,93,29.86,3.1,SE,27.6,-,N/A,,Scattered Clouds,140,2014-01-12 22:11:00
11:19 PM,37.4,35.6,93,29.86,-9999.0,SE,27.6,-,N/A,,Scattered Clouds,140,2014-01-12 22:19:00
11:25 PM,37.4,35.6,93,29.86,3.1,SE,27.6,-,N/A,,Scattered Clouds,140,2014-01-12 22:25:00
11:26 PM,37.4,35.6,93,29.86,3.1,SE,26.5,-,N/A,,Mostly Cloudy,140,2014-01-12 22:26:00
11:35 PM,37.4,35.6,93,29.86,3.1,SSE,25.3,-,N/A,,Overcast,150,2014-01-12 22:35:00
11:44 PM,37.4,35.6,93,29.86,3.1,SSE,25.3,-,N/A,,Mostly Cloudy,150,2014-01-12 22:44:00
11:50 PM,37.4,35.6,93,29.83,3.1,SSE,26.5,-,N/A,,Scattered Clouds,150,2014-01-12 22:50:00
11:55 PM,37.4,35.6,93,29.83,3.1,SSE,26.5,-,N/A,,Scattered Clouds,150,2014-01-12 22:55:00